FW4331 Weather Reports


Display with metric or nautical units.
time (UTC)temp
F
wind
direction
speed
MPH
gust
MPH
rain 1hr
in
rain 24hr
in
rain mn
in
humidity
%
barometer
mb
20260906120006 67 20 2.0 6.0 0.00 0.00 0.00 35 1013.5
20260906114502 66 357 3.0 6.0 0.00 0.00 0.00 36 1013.1
20260906113058 66 31 2.0 7.0 0.00 0.00 0.00 36 1013.1
20260906111556 0 0.0 0.0 0.00 0.00 0.00 1013.0
20260906110050 0 0.0 0.0 0.00 0.00 0.00 1012.8
20260906104546 0 0.0 0.0 0.00 0.00 0.00 1012.7
20260906103039 0 0.0 0.0 0.00 0.00 0.00 1012.6
20260906101534 0 0.0 0.0 0.00 0.00 0.00 1012.4
20260906100030 0 13 2.0 5.0 0.00 0.00 0.00 41 1012.4
20260906094526 65 357 1.0 5.0 0.00 0.00 0.00 41 1012.1
20260906093024 65 19 1.0 4.0 0.00 0.00 0.00 42 1012.0
20260906091520 65 21 1.0 5.0 0.00 0.00 0.00 41 1011.9
20260906090018 65 44 2.0 7.0 0.00 0.00 0.00 41 1011.7
20260906084516 65 356 3.0 6.0 0.00 0.00 0.00 42 1011.4
20260906083014 65 17 3.0 6.0 0.00 0.00 0.00 42 1011.4
20260906081610 65 11 3.0 6.0 0.00 0.00 0.00 43 1011.4
20260906080022 65 350 0.0 4.0 0.00 0.00 0.00 43 1011.4
20260906074505 65 32 1.0 6.0 0.00 0.00 0.00 46 1011.2
20260906073002 64 20 0.0 0.0 0.00 0.00 0.00 48 1011.4
20260906071600 64 20 0.0 0.0 0.00 0.00 0.00 48 1011.3
20260906064555 65 20 0.0 0.0 0.00 0.00 0.00 48 1011.5
20260906063058 65 20 0.0 0.0 0.00 0.00 0.00 47 1011.3
20260906061551 66 20 0.0 0.0 0.00 0.00 0.00 46 1011.2
20260906060147 67 20 0.0 0.0 0.00 0.00 0.00 46 1011.2
20260906054546 67 20 0.0 0.0 0.00 0.00 0.00 45 1011.1
20260906053055 67 20 0.0 0.0 0.00 0.00 0.00 45 1011.2
20260906051539 67 20 0.0 0.0 0.00 0.00 0.00 46 1011.3
20260906050048 68 20 0.0 0.0 0.00 0.00 0.00 46 1011.4
20260906044534 68 20 0.0 0.0 0.00 0.00 0.00 46 1011.3
20260906043032 68 20 0.0 0.0 0.00 0.00 0.00 47 1011.5
20260906041527 69 20 0.0 0.0 0.00 0.00 0.00 45 1011.5
20260906040022 69 20 0.0 0.0 0.00 0.00 0.00 45 1011.6
20260906034520 70 20 0.0 0.0 0.00 0.00 0.00 45 1011.7
20260906033024 71 20 0.0 0.0 0.00 0.00 0.00 44 1011.8
20260906031517 71 20 0.0 0.0 0.00 0.00 0.00 45 1011.5
20260906030020 70 20 0.0 0.0 0.00 0.00 0.00 48 1011.6
20260906024513 70 44 0.0 0.0 0.00 0.00 0.00 48 1011.5
20260906023012 70 51 0.0 0.0 0.00 0.00 0.00 48 1011.4
20260906021539 71 51 0.0 0.0 0.00 0.00 0.00 48 1011.2
20260906020011 71 51 0.0 0.0 0.00 0.00 0.00 49 1011.3
20260906014508 71 51 0.0 0.0 0.00 0.00 0.00 49 1011.2
20260906013048 70 265 0.0 0.0 0.00 0.00 0.00 48 1011.0
20260906011505 70 265 0.0 0.0 0.00 0.00 0.00 48 1010.7
20260906010036 70 265 0.0 0.0 0.00 0.00 0.00 47 1010.5
20260906004501 71 265 0.0 0.0 0.00 0.00 0.00 46 1010.3
20260906003104 71 265 0.0 0.0 0.00 0.00 0.00 46 1010.3
20260906001558 72 266 0.0 0.0 0.00 0.00 0.00 46 1010.1
20260906000058 72 275 0.0 2.0 0.00 0.00 0.00 45 1010.2
20260905234554 72 264 0.0 2.0 0.00 0.00 0.00 46 1010.1
20260905233052 73 268 1.0 4.0 0.00 0.00 0.00 46 1010.1
20260905231550 73 257 0.0 2.0 0.00 0.00 0.00 46 1010.1
20260905230050 73 283 1.0 3.0 0.00 0.00 0.00 45 1009.9
20260905224551 74 290 0.0 4.0 0.00 0.00 0.00 45 1009.8
20260905223044 74 283 0.0 2.0 0.00 0.00 0.00 44 1009.8
20260905221541 75 268 0.0 3.0 0.00 0.00 0.00 44 1009.8
20260905220038 75 345 0.0 0.0 0.00 0.00 0.00 43 1009.8
20260905214536 75 269 0.0 0.0 0.00 0.00 0.00 44 1009.7
20260905213035 76 356 0.0 0.0 0.00 0.00 0.00 42 1009.5
20260905211536 76 360 0.0 1.0 0.00 0.00 0.00 39 1009.3
20260905210030 77 22 0.0 4.0 0.00 0.00 0.00 37 1009.2
20260905204535 79 13 3.0 6.0 0.00 0.78 0.00 30 1009.2
20260905203026 81 60 2.0 5.0 0.00 0.78 0.00 28 1009.2
20260905201523 82 61 2.0 6.0 0.00 0.78 0.00 26 1009.1
20260905200027 81 31 1.0 4.0 0.00 0.78 0.00 26 1009.2
20260905194554 81 44 1.0 4.0 0.00 0.78 0.00 26 1009.3
20260905193016 81 301 2.0 5.0 0.00 0.78 0.00 26 1009.3
20260905191511 80 53 1.0 6.0 0.00 0.78 0.00 28 1009.6
20260905190122 79 30 1.0 5.0 0.00 0.78 0.00 29 1009.7
20260905184515 79 335 1.0 3.0 0.00 0.78 0.00 31 1009.8
20260905183009 79 57 1.0 4.0 0.00 0.78 0.00 30 1009.9
20260905181601 79 26 0.0 6.0 0.00 0.78 0.00 31 1009.8
20260905180058 79 40 3.0 8.0 0.00 0.78 0.00 30 1009.9
20260905174556 79 354 1.0 8.0 0.00 0.78 0.00 31 1010.0
20260905173053 78 7 3.0 7.0 0.00 0.78 0.00 32 1010.3
20260905171550 78 37 0.0 5.0 0.00 0.78 0.00 34 1010.4
20260905170048 76 96 0.0 2.0 0.00 0.78 0.00 36 1010.5
20260905164547 76 17 0.0 1.0 0.00 0.78 0.00 37 1011.2
20260905163045 76 45 0.0 4.0 0.00 0.78 0.00 36 1011.2
20260905161542 76 345 0.0 4.0 0.00 0.78 0.00 36 1011.4
20260905160042 76 349 0.0 4.0 0.00 0.78 0.00 38 1011.5
20260905154600 77 3 0.0 4.0 0.00 0.78 0.00 37 1011.6
20260905153036 77 3 0.0 4.0 0.00 0.78 0.00 36 1011.4
20260905151536 77 71 1.0 4.0 0.00 0.78 0.00 35 1011.5
20260905150032 77 319 0.0 5.0 0.00 0.78 0.00 35 1011.8
20260905144534 78 45 4.0 7.0 0.00 0.78 0.00 33 1011.5
20260905143100 78 50 1.0 6.0 0.00 0.78 0.00 33 1011.4
20260905141528 78 9 3.0 6.0 0.00 0.78 0.00 32 1011.4
20260905140026 78 265 0.0 2.0 0.00 0.78 0.00 36 1011.2
20260905134521 78 11 0.0 1.0 0.00 0.78 0.00 33 1010.7
20260905133035 78 359 0.0 3.0 0.00 0.78 0.00 34 1010.7
20260905131516 78 6 0.0 3.0 0.00 0.78 0.00 33 1010.6
20260905130015 76 316 0.0 2.0 0.00 0.78 0.00 35 1010.6
20260905124606 74 29 0.0 0.0 0.00 0.78 0.00 41 1010.7
20260905123002 73 30 0.0 0.0 0.00 0.78 0.00 43 1010.7
20260905121603 73 31 0.0 2.0 0.00 0.78 0.00 42 1010.7